.
WxDataArchive / Data Records for 2008-10-01
2008-09-30 October 2008 2008-10-02

Data Records for Wednesday, 01 October 2008

Time	Temp	Chill	HIndex	Humid	Dewpt	 Wind 	HiWind	WindDir	Rain 	Barom 
-----	----	-----	------	-----	-----	------	------	-------	-----	----- 
00:00	52.8	52.8	52.8	78	46.1	0	2	315	0.00	29.798 
00:05	52.8	52.8	52.8	79	46.5	1	2	292	0.00	29.797 
00:10	52.6	52.6	52.6	79	46.3	0	1	292	0.00	29.796 
00:15	52.5	52.5	52.5	80	46.5	0	1	292	0.00	29.793 
00:20	52.3	52.3	52.3	81	46.6	1	3	292	0.00	29.793 
00:25	52.2	52.2	52.2	82	46.9	1	4	270	0.00	29.792 
00:30	52.2	52.2	52.2	83	47.2	0	2	270	0.00	29.792 
00:35	52.2	52.2	52.2	83	47.2	0	1	270	0.00	29.791 
00:40	52.0	52.0	52.0	84	47.3	0	3	270	0.00	29.791 
00:45	52.0	52.0	52.0	85	47.6	0	1	270	0.00	29.789 
00:50	51.9	51.9	51.9	85	47.5	0	1	270	0.00	29.790 
00:55	51.9	51.9	51.9	86	47.8	0	1	270	0.00	29.789 
01:00	51.7	51.7	51.7	87	48.0	0	3	270	0.00	29.789 
01:05	51.6	51.6	51.6	88	48.2	0	1	270	0.00	29.790 
01:10	51.6	51.6	51.6	88	48.2	0	1	270	0.00	29.789 
01:15	51.4	51.4	51.4	89	48.3	0	1	270	0.00	29.788 
01:20	51.4	51.4	51.4	89	48.3	0	1	270	0.00	29.786 
01:25	51.4	51.4	51.4	90	48.6	0	1	270	0.00	29.785 
01:30	51.4	51.4	51.4	90	48.6	0	1	270	0.00	29.787 
01:35	51.4	51.4	51.4	90	48.6	0	1	270	0.00	29.788 
01:40	51.3	51.3	51.3	90	48.5	0	1	270	0.00	29.788 
01:45	51.3	51.3	51.3	90	48.5	0	1	270	0.00	29.787 
01:50	51.3	51.3	51.3	90	48.5	0	1	270	0.00	29.787 
01:55	51.1	51.1	51.1	90	48.3	0	1	270	0.00	29.788 
02:00	51.1	51.1	51.1	90	48.3	0	1	270	0.00	29.785 
02:05	51.1	51.1	51.1	90	48.3	0	1	270	0.00	29.783 
02:10	51.1	51.1	51.1	90	48.3	0	1	270	0.00	29.782 
02:15	51.1	51.1	51.1	90	48.3	0	2	270	0.00	29.780 
02:20	51.1	51.1	51.1	90	48.3	0	1	270	0.00	29.777 
02:25	51.0	51.0	51.0	90	48.2	0	2	270	0.00	29.775 
02:30	51.0	51.0	51.0	90	48.2	0	1	270	0.00	29.773 
02:35	51.0	51.0	51.0	90	48.2	0	1	270	0.00	29.773 
02:40	51.0	51.0	51.0	90	48.2	0	1	270	0.00	29.774 
02:45	51.0	51.0	51.0	90	48.2	0	1	270	0.00	29.773 
02:50	51.0	51.0	51.0	90	48.2	0	3	270	0.00	29.773 
02:55	51.0	51.0	51.0	90	48.2	0	1	270	0.00	29.772 
03:00	51.0	51.0	51.0	90	48.2	0	2	270	0.00	29.770 
03:05	51.0	51.0	51.0	90	48.2	0	1	270	0.00	29.770 
03:10	51.0	51.0	51.0	89	47.9	0	1	292	0.00	29.768 
03:15	50.8	50.8	50.8	89	47.7	0	2	292	0.00	29.769 
03:20	50.8	50.8	50.8	89	47.7	1	4	270	0.00	29.768 
03:25	50.8	50.8	50.8	89	47.7	0	2	270	0.00	29.766 
03:30	50.8	50.8	50.8	89	47.7	0	2	270	0.00	29.763 
03:35	50.8	50.8	50.8	89	47.7	0	1	270	0.00	29.763 
03:40	50.8	50.8	50.8	89	47.7	0	2	270	0.00	29.763 
03:45	50.8	50.8	50.8	89	47.7	1	4	315	0.00	29.762 
03:50	50.8	50.8	50.8	88	47.4	0	3	270	0.00	29.762 
03:55	50.8	50.8	50.8	89	47.7	1	3	270	0.00	29.763 
04:00	50.8	50.8	50.8	88	47.4	1	4	270	0.00	29.764 
04:05	50.8	50.8	50.8	89	47.7	0	2	270	0.00	29.764 
04:10	50.8	50.8	50.8	89	47.7	0	1	270	0.00	29.764 
04:15	50.8	50.8	50.8	89	47.7	1	3	270	0.00	29.763 
04:20	50.8	50.8	50.8	88	47.4	0	1	292	0.00	29.765 
04:25	50.8	50.8	50.8	88	47.4	0	1	292	0.00	29.764 
04:30	50.8	50.8	50.8	88	47.4	0	1	292	0.00	29.765 
04:35	50.8	50.8	50.8	88	47.4	0	1	292	0.00	29.764 
04:40	50.8	50.8	50.8	88	47.4	0	1	292	0.00	29.769 
04:45	50.7	50.7	50.7	88	47.3	0	1	292	0.00	29.769 
04:50	50.7	50.7	50.7	88	47.3	0	1	292	0.00	29.770 
04:55	50.7	50.7	50.7	88	47.3	0	1	292	0.00	29.770 
05:00	50.7	50.7	50.7	88	47.3	0	1	292	0.00	29.773 
05:05	50.7	50.7	50.7	88	47.3	0	2	292	0.00	29.774 
05:10	50.7	50.7	50.7	87	47.0	0	1	292	0.00	29.775 
05:15	50.5	50.5	50.5	88	47.1	0	1	292	0.00	29.776 
05:20	50.4	50.4	50.4	88	47.0	0	2	292	0.00	29.776 
05:25	50.2	50.2	50.2	88	46.8	0	1	292	0.00	29.778 
05:30	50.1	50.1	50.1	88	46.7	0	1	292	0.00	29.778 
05:35	49.9	49.9	49.9	88	46.5	0	1	292	0.00	29.778 
05:40	49.9	49.9	49.9	88	46.5	0	1	292	0.00	29.777 
05:45	49.8	49.8	49.8	88	46.4	0	1	292	0.00	29.777 
05:50	49.8	49.8	49.8	88	46.4	0	0	---	0.00	29.778 
05:55	49.8	49.8	49.8	89	46.7	0	1	292	0.00	29.780 
06:00	49.8	49.8	49.8	89	46.7	0	1	292	0.00	29.782 
06:05	49.6	49.6	49.6	89	46.5	0	1	315	0.00	29.783 
06:10	49.6	49.6	49.6	89	46.5	0	1	315	0.00	29.783 
06:15	49.6	49.6	49.6	89	46.5	0	1	315	0.00	29.781 
06:20	49.6	49.6	49.6	89	46.5	0	0	---	0.00	29.780 
06:25	49.6	49.6	49.6	90	46.8	0	1	315	0.00	29.781 
06:30	49.6	49.6	49.6	90	46.8	0	1	315	0.00	29.782 
06:35	49.6	49.6	49.6	90	46.8	0	1	315	0.00	29.782 
06:40	49.8	49.8	49.8	90	47.0	0	1	315	0.00	29.783 
06:45	49.8	49.8	49.8	90	47.0	0	1	315	0.00	29.788 
06:50	49.8	49.8	49.8	90	47.0	0	3	315	0.00	29.788 
06:55	49.9	49.9	49.9	90	47.1	0	1	270	0.00	29.788 
07:00	49.9	49.9	49.9	90	47.1	0	1	270	0.00	29.786 
07:05	49.9	49.9	49.9	90	47.1	0	1	270	0.00	29.788 
07:10	50.1	50.1	50.1	90	47.3	0	1	270	0.00	29.790 
07:15	50.1	50.1	50.1	90	47.3	0	1	270	0.00	29.792 
07:20	50.1	50.1	50.1	90	47.3	0	1	270	0.00	29.791 
07:25	50.2	50.2	50.2	89	47.1	0	2	270	0.00	29.792 
07:30	50.5	50.5	50.5	89	47.4	0	1	270	0.00	29.791 
07:35	50.7	50.7	50.7	88	47.3	0	2	270	0.00	29.789 
07:40	51.0	51.0	51.0	88	47.6	0	2	292	0.00	29.792 
07:45	51.1	51.1	51.1	87	47.4	0	1	292	0.00	29.792 
07:50	51.4	51.4	51.4	86	47.4	0	1	292	0.00	29.793 
07:55	51.6	51.6	51.6	84	46.9	1	4	270	0.00	29.794 
08:00	51.7	51.7	51.7	84	47.0	1	3	270	0.00	29.793 
08:05	52.0	52.0	52.0	83	47.0	1	3	315	0.00	29.794 
08:10	52.2	52.2	52.2	82	46.9	0	2	315	0.00	29.795 
08:15	52.3	52.3	52.3	81	46.6	0	1	315	0.00	29.796 
08:20	52.6	52.6	52.6	81	46.9	1	4	292	0.00	29.794 
08:25	52.8	52.8	52.8	80	46.8	1	5	270	0.00	29.795 
08:30	52.9	52.9	52.9	80	46.9	1	4	315	0.00	29.794 
08:35	53.2	53.2	53.2	79	46.9	1	4	315	0.00	29.794 
08:40	53.5	53.5	53.5	79	47.1	1	4	270	0.00	29.794 
08:45	53.6	53.6	53.6	77	46.6	1	5	315	0.00	29.795 
08:50	53.8	53.8	53.8	77	46.8	2	6	270	0.00	29.797 
08:55	53.9	53.9	53.9	77	46.9	2	4	292	0.00	29.798 
09:00	54.1	54.1	54.1	75	46.4	2	4	292	0.00	29.800 
09:05	54.2	54.2	54.2	76	46.8	1	4	315	0.00	29.804 
09:10	54.2	54.2	54.2	75	46.4	2	5	315	0.00	29.803 
09:15	54.7	54.7	54.7	76	47.3	1	3	270	0.00	29.803 
09:20	55.1	55.1	55.1	73	46.6	3	9	315	0.00	29.802 
09:25	55.1	55.1	55.1	73	46.6	1	4	315	0.00	29.805 
09:30	55.1	55.1	55.1	73	46.6	1	5	292	0.00	29.806 
09:35	54.8	54.8	54.8	71	45.6	2	5	270	0.00	29.807 
09:40	54.7	54.7	54.7	72	45.9	1	3	0	0.00	29.808 
09:45	55.3	55.3	55.3	73	46.8	1	4	315	0.00	29.807 
09:50	56.2	56.2	56.2	70	46.5	1	4	315	0.00	29.808 
09:55	55.9	55.9	55.9	70	46.3	1	4	270	0.00	29.807 
10:00	55.4	55.4	55.4	71	46.2	1	4	292	0.00	29.807 
10:05	55.4	55.4	55.4	70	45.8	1	5	292	0.00	29.807 
10:10	55.3	55.3	55.3	72	46.4	1	6	315	0.00	29.806 
10:15	55.3	55.3	55.3	71	46.1	1	4	315	0.00	29.806 
10:20	55.6	55.6	55.6	73	47.1	0	2	292	0.00	29.806 
10:25	55.7	55.7	55.7	72	46.8	0	3	315	0.00	29.806 
10:30	55.6	55.6	55.6	71	46.3	1	3	338	0.00	29.807 
10:35	55.4	55.4	55.4	71	46.2	1	3	315	0.00	29.807 
10:40	55.3	55.3	55.3	71	46.1	1	3	0	0.00	29.807 
10:45	55.7	55.7	55.7	72	46.8	1	3	315	0.00	29.808 
10:50	56.7	56.7	56.7	67	45.9	1	4	45	0.00	29.806 
10:55	57.5	57.5	57.5	65	45.8	1	5	270	0.00	29.806 
11:00	56.7	56.7	56.7	62	43.8	2	4	292	0.00	29.808 
11:05	56.2	56.2	56.2	64	44.2	1	3	315	0.00	29.809 
11:10	55.9	55.9	55.9	66	44.7	0	2	315	0.00	29.809 
11:15	56.9	56.9	56.9	65	45.3	0	2	315	0.00	29.808 
11:20	57.2	57.2	57.2	62	44.3	1	3	292	0.00	29.808 
11:25	56.6	56.6	56.6	62	43.7	1	6	270	0.00	29.809 
11:30	56.2	56.2	56.2	62	43.4	1	3	315	0.00	29.812 
11:35	56.2	56.2	56.2	62	43.4	1	3	292	0.00	29.810 
11:40	56.3	56.3	56.3	61	43.0	1	3	315	0.00	29.812 
11:45	56.3	56.3	56.3	62	43.4	0	2	315	0.00	29.813 
11:50	56.3	56.3	56.3	63	43.9	0	2	315	0.00	29.815 
11:55	56.3	56.3	56.3	63	43.9	0	2	315	0.00	29.816 
12:00	56.6	56.6	56.6	63	44.2	0	1	0	0.00	29.814 
12:05	56.7	56.7	56.7	61	43.4	1	4	292	0.00	29.819 
12:10	56.6	56.6	56.6	61	43.3	1	4	292	0.00	29.821 
12:15	56.5	56.5	56.5	61	43.2	0	2	338	0.00	29.822 
12:20	56.3	56.3	56.3	63	43.9	0	1	338	0.00	29.822 
12:25	56.3	56.3	56.3	62	43.4	0	1	338	0.00	29.822 
12:30	56.5	56.5	56.5	62	43.6	0	3	338	0.00	29.823 
12:35	56.5	56.5	56.5	61	43.2	1	5	292	0.00	29.823 
12:40	56.9	56.9	56.9	64	44.8	0	2	315	0.00	29.821 
12:45	57.0	57.0	57.0	63	44.5	0	2	338	0.00	29.819 
12:50	57.2	57.2	57.2	59	43.0	1	2	338	0.00	29.820 
12:55	56.7	56.7	56.7	58	42.1	1	5	338	0.00	29.819 
13:00	56.5	56.5	56.5	60	42.8	0	2	292	0.00	29.818 
13:05	56.0	56.0	56.0	61	42.7	0	4	22	0.00	29.818 
13:10	55.9	55.9	55.9	62	43.1	0	2	0	0.00	29.816 
13:15	55.9	55.9	55.9	65	44.3	0	0	---	0.00	29.814 
13:20	55.7	55.7	55.7	64	43.7	0	2	0	0.00	29.813 
13:25	55.7	55.7	55.7	65	44.1	0	1	0	0.00	29.813 
13:30	55.9	55.9	55.9	64	43.9	0	2	0	0.00	29.812 
13:35	56.2	56.2	56.2	66	45.0	0	1	338	0.00	29.812 
13:40	56.3	56.3	56.3	65	44.7	0	3	0	0.00	29.810 
13:45	56.5	56.5	56.5	63	44.1	1	3	270	0.00	29.809 
13:50	56.3	56.3	56.3	60	42.6	1	4	315	0.00	29.810 
13:55	56.2	56.2	56.2	59	42.1	0	4	270	0.00	29.811 
14:00	56.3	56.3	56.3	61	43.0	0	2	270	0.00	29.812 
14:05	56.5	56.5	56.5	60	42.8	1	3	270	0.00	29.810 
14:10	56.3	56.3	56.3	60	42.6	2	4	292	0.00	29.811 
14:15	56.3	56.3	56.3	61	43.0	1	4	292	0.00	29.814 
14:20	56.3	56.3	56.3	62	43.4	1	4	292	0.00	29.815 
14:25	56.5	56.5	56.5	63	44.1	0	2	292	0.00	29.816 
14:30	56.6	56.6	56.6	62	43.7	1	2	292	0.00	29.818 
14:35	56.6	56.6	56.6	62	43.7	1	4	315	0.00	29.820 
14:40	56.6	56.6	56.6	63	44.2	0	2	315	0.00	29.820 
14:45	56.9	56.9	56.9	64	44.8	0	2	270	0.00	29.821 
14:50	57.2	57.2	57.2	64	45.1	1	3	90	0.00	29.822 
14:55	57.2	57.2	57.2	62	44.3	0	2	68	0.00	29.823 
15:00	57.0	57.0	57.0	63	44.5	0	2	0	0.00	29.824 
15:05	56.7	56.7	56.7	63	44.2	1	2	0	0.00	29.824 
15:10	56.6	56.6	56.6	62	43.7	1	4	338	0.00	29.824 
15:15	56.7	56.7	56.7	61	43.4	1	3	315	0.00	29.825 
15:20	56.9	56.9	56.9	60	43.2	0	2	315	0.00	29.826 
15:25	56.7	56.7	56.7	61	43.4	0	1	315	0.00	29.826 
15:30	56.6	56.6	56.6	61	43.3	0	3	315	0.00	29.827 
15:35	56.5	56.5	56.5	61	43.2	1	4	270	0.00	29.828 
15:40	56.3	56.3	56.3	60	42.6	1	3	315	0.00	29.829 
15:45	56.5	56.5	56.5	62	43.6	0	2	315	0.00	29.827 
15:50	56.5	56.5	56.5	60	42.8	0	2	315	0.00	29.828 
15:55	56.3	56.3	56.3	60	42.6	1	3	315	0.00	29.830 
16:00	56.2	56.2	56.2	59	42.1	1	6	0	0.00	29.829 
16:05	56.2	56.2	56.2	60	42.5	0	2	270	0.00	29.829 
16:10	56.2	56.2	56.2	58	41.6	1	2	270	0.00	29.827 
16:15	56.5	56.5	56.5	58	41.9	1	4	292	0.00	29.826 
16:20	56.9	56.9	56.9	56	41.4	1	3	292	0.00	29.826 
16:25	57.0	57.0	57.0	55	41.0	0	2	292	0.00	29.825 
16:30	57.0	57.0	57.0	55	41.0	0	3	270	0.00	29.827 
16:35	56.9	56.9	56.9	57	41.8	0	2	270	0.00	29.827 
16:40	56.6	56.6	56.6	57	41.5	0	3	338	0.00	29.828 
16:45	56.5	56.5	56.5	58	41.9	0	2	338	0.00	29.828 
16:50	56.5	56.5	56.5	57	41.5	0	1	338	0.00	29.830 
16:55	56.3	56.3	56.3	56	40.8	0	3	338	0.00	29.834 
17:00	56.2	56.2	56.2	56	40.7	1	4	292	0.00	29.835 
17:05	56.2	56.2	56.2	55	40.2	1	3	315	0.00	29.835 
17:10	56.2	56.2	56.2	55	40.2	1	3	315	0.00	29.835 
17:15	56.0	56.0	56.0	56	40.5	1	3	292	0.00	29.837 
17:20	56.0	56.0	56.0	57	41.0	1	4	270	0.00	29.839 
17:25	55.9	55.9	55.9	56	40.4	1	4	270	0.00	29.840 
17:30	55.9	55.9	55.9	56	40.4	1	3	292	0.00	29.839 
17:35	55.7	55.7	55.7	57	40.7	1	4	315	0.00	29.841 
17:40	55.7	55.7	55.7	57	40.7	0	2	292	0.00	29.842 
17:45	55.6	55.6	55.6	57	40.6	1	4	315	0.00	29.842 
17:50	55.6	55.6	55.6	58	41.1	1	3	315	0.00	29.843 
17:55	55.6	55.6	55.6	58	41.1	1	2	315	0.00	29.844 
18:00	55.4	55.4	55.4	59	41.3	0	2	315	0.00	29.847 
18:05	55.4	55.4	55.4	56	40.0	1	4	292	0.00	29.847 
18:10	55.4	55.4	55.4	56	40.0	2	7	292	0.00	29.851 
18:15	55.1	55.1	55.1	56	39.7	1	5	292	0.00	29.853 
18:20	55.0	55.0	55.0	57	40.0	1	4	292	0.00	29.852 
18:25	55.0	55.0	55.0	58	40.5	1	2	315	0.00	29.855 
18:30	54.8	54.8	54.8	58	40.3	1	4	315	0.00	29.858 
18:35	54.7	54.7	54.7	58	40.2	1	4	292	0.00	29.858 
18:40	54.5	54.5	54.5	58	40.0	1	2	292	0.00	29.859 
18:45	54.5	54.5	54.5	59	40.5	1	3	315	0.00	29.861 
18:50	54.4	54.4	54.4	60	40.8	0	1	315	0.00	29.862 
18:55	54.4	54.4	54.4	60	40.8	1	3	315	0.00	29.863 
19:00	54.2	54.2	54.2	60	40.6	1	4	292	0.00	29.865 
19:05	54.1	54.1	54.1	60	40.5	1	3	315	0.00	29.865 
19:10	53.9	53.9	53.9	59	39.9	1	2	315	0.00	29.866 
19:15	53.8	53.8	53.8	57	38.9	1	4	315	0.00	29.867 
19:20	53.6	53.6	53.6	56	38.3	2	5	315	0.00	29.867 
19:25	53.5	53.5	53.5	56	38.2	1	5	270	0.00	29.871 
19:30	53.2	53.2	53.2	56	37.9	1	5	270	0.00	29.874 
19:35	52.9	52.9	52.9	57	38.1	0	3	315	0.00	29.875 
19:40	52.6	52.6	52.6	58	38.2	1	3	315	0.00	29.877 
19:45	52.5	52.5	52.5	57	37.7	0	2	315	0.00	29.879 
19:50	52.3	52.3	52.3	56	37.1	2	7	292	0.00	29.881 
19:55	52.2	52.2	52.2	56	37.0	1	3	292	0.00	29.881 
20:00	52.0	52.0	52.0	56	36.8	1	2	315	0.00	29.883 
20:05	51.7	51.7	51.7	57	37.0	1	3	315	0.00	29.879 
20:10	51.7	51.7	51.7	58	37.4	1	2	315	0.00	29.883 
20:15	51.6	51.6	51.6	59	37.7	0	2	315	0.00	29.884 
20:20	51.3	51.3	51.3	59	37.5	1	3	315	0.00	29.885 
20:25	51.0	51.0	51.0	60	37.6	1	5	270	0.00	29.885 
20:30	50.7	50.7	50.7	60	37.3	1	3	338	0.00	29.887 
20:35	50.4	50.4	50.4	61	37.5	1	3	338	0.00	29.886 
20:40	50.1	50.1	50.1	62	37.6	0	1	292	0.00	29.884 
20:45	49.8	49.8	49.8	62	37.3	1	3	292	0.00	29.886 
20:50	49.6	49.6	49.6	63	37.5	1	3	292	0.00	29.889 
20:55	49.4	49.4	49.4	63	37.3	0	1	248	0.00	29.892 
21:00	49.2	49.2	49.2	64	37.5	0	1	270	0.00	29.893 
21:05	49.1	49.1	49.1	64	37.5	0	1	270	0.00	29.892 
21:10	48.9	48.9	48.9	65	37.7	0	1	315	0.00	29.892 
21:15	48.6	48.6	48.6	65	37.4	0	1	270	0.00	29.892 
21:20	48.6	48.6	48.6	65	37.4	0	2	270	0.00	29.892 
21:25	48.5	48.5	48.5	66	37.7	0	1	270	0.00	29.892 
21:30	48.3	48.3	48.3	66	37.5	0	1	270	0.00	29.893 
21:35	48.0	48.0	48.0	67	37.6	0	1	270	0.00	29.893 
21:40	47.9	47.9	47.9	67	37.5	0	1	270	0.00	29.894 
21:45	47.7	47.7	47.7	68	37.7	0	1	270	0.00	29.895 
21:50	47.6	47.6	47.6	68	37.6	0	1	270	0.00	29.895 
21:55	47.4	47.4	47.4	68	37.4	0	1	270	0.00	29.894 
22:00	47.3	47.3	47.3	69	37.7	0	0	---	0.00	29.895 
22:05	47.1	47.1	47.1	69	37.5	0	1	270	0.00	29.892 
22:10	47.0	47.0	47.0	69	37.4	0	1	270	0.00	29.892 
22:15	46.8	46.8	46.8	70	37.5	0	1	270	0.00	29.891 
22:20	46.7	46.7	46.7	70	37.4	0	1	270	0.00	29.891 
22:25	46.5	46.5	46.5	71	37.6	0	1	270	0.00	29.889 
22:30	46.5	46.5	46.5	71	37.6	0	1	270	0.00	29.890 
22:35	46.4	46.4	46.4	71	37.5	0	1	270	0.00	29.892 
22:40	46.2	46.2	46.2	71	37.3	0	1	270	0.00	29.893 
22:45	46.1	46.1	46.1	72	37.6	0	0	---	0.00	29.893 
22:50	45.8	45.8	45.8	72	37.3	0	0	---	0.00	29.893 
22:55	45.7	45.7	45.7	73	37.5	0	0	---	0.00	29.893 
23:00	45.5	45.5	45.5	73	37.4	0	1	270	0.00	29.894 
23:05	45.2	45.2	45.2	74	37.4	0	0	---	0.00	29.893 
23:10	45.1	45.1	45.1	74	37.3	0	0	---	0.00	29.893 
23:15	44.8	44.8	44.8	75	37.4	0	1	270	0.00	29.893 
23:20	44.6	44.6	44.6	75	37.2	0	1	270	0.00	29.893 
23:25	44.3	44.3	44.3	76	37.2	0	0	---	0.00	29.892 
23:30	44.2	44.2	44.2	76	37.1	0	0	---	0.00	29.893 
23:35	43.9	43.9	43.9	77	37.2	0	0	---	0.00	29.891 
23:40	43.8	43.8	43.8	77	37.1	0	0	---	0.00	29.891 
23:45	43.5	43.5	43.5	78	37.1	0	0	---	0.00	29.892 
23:50	43.2	43.2	43.2	79	37.1	0	0	---	0.00	29.893 
23:55	43.1	43.1	43.1	80	37.4	0	0	---	0.00	29.893 

CoCoRaHS
IN-AL-39
A2 Web Hosting
Creative Commons License
GoDaddy
Look for:

loaded 2017-10-16 18:20:45 • last modified 2010-11-18 10:43:29
Privacy PolicyDisclaimer
• wx.awcolley.com is powered by PmWiki v.2002016 •
• all content (unless otherwise noted) © 2017 A W Colley